| time (UTC) | temp F | wind direction | speed knots | gust knots | rain 1hr in | rain 24hr in | rain mn in | humidity % | barometer mb |
| 20260507134634 | 51 | 325 | 4.3 | 6.1 | 0.00 | 0.00 | 0.00 | 58 | 1020.1 |
| 20260507134130 | 51 | 343 | 4.3 | 5.2 | 0.00 | 0.00 | 0.00 | 61 | 1020.2 |
| 20260507133626 | 51 | 296 | 4.3 | 5.2 | 0.00 | 0.00 | 0.00 | 60 | 1020.2 |
| 20260507133124 | 51 | 304 | 3.5 | 5.2 | 0.00 | 0.00 | 0.00 | 61 | 1020.1 |
| 20260507132620 | 51 | 301 | 5.2 | 7.0 | 0.00 | 0.00 | 0.00 | 61 | 1020.0 |
| 20260507132116 | 50 | 5 | 1.7 | 2.6 | 0.00 | 0.00 | 0.00 | 60 | 1020.1 |
| 20260507131613 | 50 | 7 | 2.6 | 2.6 | 0.00 | 0.00 | 0.00 | 61 | 1020.0 |
| 20260507131111 | 50 | 292 | 4.3 | 6.1 | 0.00 | 0.00 | 0.00 | 62 | 1020.2 |
| 20260507130608 | 49 | 341 | 4.3 | 5.2 | 0.00 | 0.00 | 0.00 | 61 | 1020.2 |
| 20260507130106 | 49 | 332 | 3.5 | 4.3 | 0.00 | 0.00 | 0.00 | 65 | 1020.3 |
| 20260507125604 | 49 | 307 | 3.5 | 4.3 | 0.00 | 0.00 | 0.00 | 63 | 1020.4 |
| 20260507125101 | 49 | 319 | 3.5 | 4.3 | 0.00 | 0.00 | 0.00 | 64 | 1020.4 |
| 20260507124557 | 49 | 323 | 2.6 | 4.3 | 0.00 | 0.00 | 0.00 | 71 | 1020.2 |
| 20260507124056 | 48 | 319 | 3.5 | 4.3 | 0.00 | 0.00 | 0.00 | 70 | 1020.2 |
| 20260507123553 | 48 | 323 | 2.6 | 4.3 | 0.00 | 0.00 | 0.00 | 70 | 1020.2 |
| 20260507123050 | 48 | 300 | 3.5 | 5.2 | 0.00 | 0.00 | 0.00 | 70 | 1020.2 |
| 20260507122545 | 47 | 309 | 2.6 | 2.6 | 0.00 | 0.00 | 0.00 | 73 | 1020.0 |
| 20260507122041 | 47 | 327 | 4.3 | 5.2 | 0.00 | 0.00 | 0.00 | 74 | 1020.3 |
| 20260507121537 | 46 | 314 | 5.2 | 6.1 | 0.00 | 0.00 | 0.00 | 76 | 1020.0 |
| 20260507121033 | 46 | 297 | 2.6 | 4.3 | 0.00 | 0.00 | 0.00 | 76 | 1020.0 |
| 20260507120529 | 46 | 339 | 4.3 | 6.1 | 0.00 | 0.00 | 0.00 | 77 | 1019.9 |
| 20260507120027 | 46 | 288 | 3.5 | 4.3 | 0.00 | 0.00 | 0.00 | 79 | 1020.3 |
| 20260507115523 | 46 | 336 | 2.6 | 5.2 | 0.00 | 0.00 | 0.00 | 79 | 1020.3 |
| 20260507115018 | 45 | 322 | 2.6 | 2.6 | 0.00 | 0.00 | 0.00 | 81 | 1020.2 |
| 20260507114515 | 45 | 303 | 2.6 | 2.6 | 0.00 | 0.00 | 0.00 | 81 | 1020.2 |
| 20260507114012 | 45 | 314 | 2.6 | 2.6 | 0.00 | 0.00 | 0.00 | 82 | 1020.3 |
| 20260507113509 | 44 | 307 | 2.6 | 2.6 | 0.00 | 0.00 | 0.00 | 82 | 1020.2 |
| 20260507113006 | 44 | 311 | 1.7 | 1.7 | 0.00 | 0.00 | 0.00 | 84 | 1020.1 |
| 20260507112504 | 43 | 301 | 2.6 | 2.6 | 0.00 | 0.00 | 0.00 | 86 | 1020.0 |
| 20260507112000 | 43 | 295 | 1.7 | 1.7 | 0.00 | 0.00 | 0.00 | 87 | 1019.9 |
| 20260507111459 | 42 | 290 | 1.7 | 1.7 | 0.00 | 0.00 | 0.00 | 87 | 1019.7 |
| 20260507110954 | 41 | 282 | 1.7 | 1.7 | 0.00 | 0.00 | 0.00 | 88 | 1019.8 |
| 20260507110450 | 41 | 278 | 1.7 | 1.7 | 0.00 | 0.00 | 0.00 | 88 | 1020.1 |
| 20260507105947 | 41 | 272 | 1.7 | 1.7 | 0.00 | 0.00 | 0.00 | 88 | 1019.7 |
| 20260507105444 | 41 | 278 | 1.7 | 1.7 | 0.00 | 0.00 | 0.00 | 88 | 1019.5 |
| 20260507104940 | 41 | 277 | 2.6 | 2.6 | 0.00 | 0.00 | 0.00 | 88 | 1019.6 |
| 20260507104438 | 40 | 287 | 2.6 | 2.6 | 0.00 | 0.00 | 0.00 | 89 | 1019.4 |
| 20260507103933 | 40 | 271 | 1.7 | 1.7 | 0.00 | 0.00 | 0.00 | 89 | 1019.7 |
| 20260507103430 | 40 | 278 | 1.7 | 1.7 | 0.00 | 0.00 | 0.00 | 89 | 1019.5 |
| 20260507102926 | 40 | 301 | 0.9 | 1.7 | 0.00 | 0.00 | 0.00 | 90 | 1019.4 |
| 20260507102423 | 40 | 295 | 2.6 | 4.3 | 0.00 | 0.00 | 0.00 | 90 | 1019.7 |
| 20260507101920 | 40 | 274 | 1.7 | 1.7 | 0.00 | 0.00 | 0.00 | 90 | 1019.3 |
| 20260507101415 | 40 | 278 | 1.7 | 1.7 | 0.00 | 0.00 | 0.00 | 90 | 1019.5 |
| 20260507100911 | 40 | 276 | 1.7 | 1.7 | 0.00 | 0.00 | 0.00 | 90 | 1019.3 |
| 20260507100409 | 40 | 275 | 1.7 | 1.7 | 0.00 | 0.00 | 0.00 | 90 | 1019.5 |
| 20260507095907 | 41 | 270 | 1.7 | 1.7 | 0.00 | 0.00 | 0.00 | 89 | 1019.4 |
| 20260507095404 | 41 | 273 | 1.7 | 1.7 | 0.00 | 0.00 | 0.00 | 89 | 1019.3 |
| 20260507094901 | 41 | 277 | 1.7 | 1.7 | 0.00 | 0.00 | 0.00 | 88 | 1019.5 |
| 20260507094357 | 41 | 274 | 1.7 | 1.7 | 0.00 | 0.00 | 0.00 | 88 | 1019.5 |
| 20260507093854 | 42 | 274 | 1.7 | 1.7 | 0.00 | 0.00 | 0.00 | 88 | 1019.5 |
| 20260507093353 | 41 | 267 | 1.7 | 1.7 | 0.00 | 0.00 | 0.00 | 89 | 1019.5 |
| 20260507092850 | 41 | 271 | 1.7 | 1.7 | 0.00 | 0.00 | 0.00 | 89 | 1019.3 |
| 20260507092346 | 41 | 273 | 1.7 | 1.7 | 0.00 | 0.00 | 0.00 | 89 | 1019.4 |
| 20260507091843 | 41 | 272 | 1.7 | 1.7 | 0.00 | 0.00 | 0.00 | 89 | 1019.2 |
| 20260507091339 | 41 | 282 | 0.0 | 0.0 | 0.00 | 0.00 | 0.00 | 90 | 1019.6 |
| 20260507090835 | 41 | 273 | 0.0 | 0.0 | 0.00 | 0.00 | 0.00 | 91 | 1019.4 |
| 20260507090331 | 41 | 281 | 0.0 | 0.0 | 0.00 | 0.00 | 0.00 | 91 | 1019.3 |
| 20260507085829 | 41 | 272 | 0.0 | 0.0 | 0.00 | 0.00 | 0.00 | 92 | 1019.4 |
| 20260507085325 | 41 | 273 | 0.0 | 0.0 | 0.00 | 0.00 | 0.00 | 93 | 1019.3 |
| 20260507084823 | 41 | 272 | 0.0 | 0.0 | 0.00 | 0.00 | 0.00 | 94 | 1019.2 |
| 20260507084319 | 41 | 268 | 0.0 | 0.0 | 0.00 | 0.00 | 0.00 | 94 | 1019.3 |
| 20260507083817 | 41 | 260 | 0.0 | 0.0 | 0.00 | 0.00 | 0.00 | 95 | 1019.1 |
| 20260507083313 | 41 | 260 | 0.0 | 0.0 | 0.00 | 0.00 | 0.00 | 95 | 1019.3 |
| 20260507082809 | 42 | 260 | 0.0 | 0.0 | 0.00 | 0.00 | 0.00 | 96 | 1019.2 |
| 20260507082306 | 41 | 246 | 0.0 | 0.0 | 0.00 | 0.00 | 0.00 | 96 | 1019.2 |
| 20260507081803 | 41 | 248 | 0.0 | 0.0 | 0.00 | 0.00 | 0.00 | 97 | 1019.3 |
| 20260507081258 | 41 | 284 | 0.0 | 0.0 | 0.00 | 0.00 | 0.00 | 97 | 1019.3 |
| 20260507080755 | 41 | 290 | 0.0 | 0.0 | 0.00 | 0.00 | 0.00 | 96 | 1019.2 |
| 20260507080251 | 41 | 290 | 0.0 | 0.0 | 0.00 | 0.00 | 0.00 | 97 | 1019.3 |
| 20260507075746 | 41 | 290 | 0.0 | 0.0 | 0.00 | 0.00 | 0.00 | 97 | 1019.4 |
| 20260507075243 | 41 | 290 | 0.0 | 0.0 | 0.00 | 0.00 | 0.00 | 97 | 1019.2 |
| 20260507074739 | 41 | 290 | 0.0 | 0.0 | 0.00 | 0.00 | 0.00 | 97 | 1019.1 |
| 20260507074238 | 41 | 303 | 0.0 | 0.0 | 0.00 | 0.00 | 0.00 | 97 | 1019.2 |
| 20260507073734 | 41 | 303 | 0.0 | 0.0 | 0.00 | 0.00 | 0.00 | 96 | 1019.3 |
| 20260507073230 | 41 | 304 | 0.0 | 0.0 | 0.00 | 0.00 | 0.00 | 96 | 1019.3 |
| 20260507072728 | 41 | 284 | 0.0 | 0.0 | 0.00 | 0.00 | 0.00 | 97 | 1019.2 |
| 20260507072225 | 41 | 267 | 0.0 | 0.0 | 0.00 | 0.00 | 0.00 | 97 | 1019.2 |
| 20260507071723 | 41 | 303 | 0.0 | 0.0 | 0.00 | 0.00 | 0.00 | 97 | 1019.4 |
| 20260507071219 | 40 | 281 | 0.0 | 0.0 | 0.00 | 0.00 | 0.00 | 96 | 1019.3 |
| 20260507070716 | 40 | 306 | 0.0 | 0.0 | 0.00 | 0.00 | 0.00 | 96 | 1019.2 |
| 20260507070213 | 40 | 326 | 0.0 | 0.0 | 0.00 | 0.00 | 0.00 | 96 | 1019.2 |
| 20260507065709 | 40 | 292 | 0.0 | 0.0 | 0.00 | 0.00 | 0.00 | 96 | 1019.3 |
| 20260507065206 | 40 | 300 | 0.0 | 0.0 | 0.00 | 0.00 | 0.00 | 96 | 1019.3 |
| 20260507064704 | 41 | 327 | 0.0 | 0.0 | 0.00 | 0.00 | 0.00 | 96 | 1019.3 |
| 20260507064203 | 40 | 325 | 0.0 | 0.0 | 0.00 | 0.00 | 0.00 | 96 | 1019.4 |
| 20260507063659 | 40 | 325 | 0.0 | 0.0 | 0.00 | 0.00 | 0.00 | 96 | 1019.2 |
| 20260507063156 | 41 | 325 | 0.0 | 0.0 | 0.00 | 0.00 | 0.00 | 96 | 1019.3 |
| 20260507062653 | 41 | 325 | 0.0 | 0.0 | 0.00 | 0.00 | 0.00 | 96 | 1019.2 |
| 20260507062151 | 41 | 325 | 0.0 | 0.0 | 0.00 | 0.00 | 0.00 | 96 | 1019.2 |
| 20260507061648 | 41 | 325 | 0.0 | 0.0 | 0.00 | 0.00 | 0.00 | 96 | 1019.5 |
| 20260507061146 | 41 | 324 | 0.0 | 0.0 | 0.00 | 0.00 | 0.00 | 96 | 1019.4 |
| 20260507060644 | 41 | 326 | 0.0 | 0.0 | 0.00 | 0.00 | 0.00 | 96 | 1019.4 |
| 20260507060140 | 41 | 262 | 0.0 | 0.0 | 0.00 | 0.00 | 0.00 | 96 | 1019.4 |
| 20260507055636 | 41 | 262 | 0.0 | 0.0 | 0.00 | 0.00 | 0.00 | 96 | 1019.6 |
| 20260507055132 | 40 | 262 | 0.0 | 0.0 | 0.00 | 0.00 | 0.00 | 95 | 1019.5 |
| 20260507054628 | 41 | 261 | 0.0 | 0.0 | 0.00 | 0.00 | 0.00 | 95 | 1019.5 |
| 20260507054125 | 41 | 261 | 0.0 | 0.0 | 0.00 | 0.00 | 0.00 | 95 | 1019.6 |
| 20260507053623 | 41 | 261 | 0.0 | 0.0 | 0.00 | 0.00 | 0.00 | 95 | 1019.5 |
| 20260507053121 | 42 | 276 | 0.0 | 0.0 | 0.00 | 0.00 | 0.00 | 95 | 1019.6 |
| 20260507052619 | 42 | 239 | 0.0 | 0.0 | 0.00 | 0.00 | 0.00 | 95 | 1019.6 |
| 20260507052115 | 42 | 238 | 0.0 | 0.0 | 0.00 | 0.00 | 0.00 | 95 | 1019.5 |
| 20260507051613 | 42 | 238 | 0.0 | 0.0 | 0.00 | 0.00 | 0.00 | 95 | 1019.8 |
| 20260507051110 | 42 | 239 | 0.0 | 0.0 | 0.00 | 0.00 | 0.00 | 95 | 1019.6 |
| 20260507050606 | 42 | 238 | 0.0 | 0.0 | 0.00 | 0.00 | 0.00 | 95 | 1019.8 |
| 20260507050103 | 42 | 238 | 0.0 | 0.0 | 0.00 | 0.00 | 0.00 | 95 | 1019.6 |
| 20260507045600 | 42 | 238 | 0.0 | 0.0 | 0.00 | 0.00 | 0.00 | 95 | 1019.7 |
| 20260507045057 | 42 | 239 | 0.0 | 0.0 | 0.00 | 0.00 | 0.00 | 95 | 1019.7 |
| 20260507044553 | 42 | 245 | 0.0 | 0.0 | 0.00 | 0.00 | 0.00 | 94 | 1019.6 |
| 20260507044050 | 43 | 253 | 0.0 | 0.0 | 0.00 | 0.00 | 0.00 | 94 | 1019.5 |
| 20260507043546 | 43 | 253 | 0.0 | 0.0 | 0.00 | 0.00 | 0.00 | 94 | 1019.3 |
| 20260507043044 | 43 | 252 | 0.0 | 0.0 | 0.00 | 0.00 | 0.00 | 95 | 1019.7 |
| 20260507042539 | 43 | 280 | 0.0 | 0.0 | 0.00 | 0.00 | 0.00 | 94 | 1019.8 |
| 20260507042035 | 43 | 299 | 0.0 | 0.0 | 0.00 | 0.00 | 0.00 | 94 | 1019.6 |
| 20260507041532 | 42 | 299 | 0.0 | 0.0 | 0.00 | 0.00 | 0.00 | 94 | 1019.6 |
| 20260507041029 | 42 | 299 | 0.0 | 0.0 | 0.00 | 0.00 | 0.00 | 93 | 1019.6 |
| 20260507040525 | 43 | 299 | 0.0 | 0.0 | 0.00 | 0.00 | 0.00 | 93 | 1019.4 |
| 20260507040021 | 43 | 299 | 0.0 | 0.0 | 0.00 | 0.39 | 0.39 | 93 | 1019.9 |
| 20260507035518 | 43 | 298 | 0.0 | 0.0 | 0.00 | 0.39 | 0.39 | 93 | 1019.7 |
| 20260507035014 | 44 | 299 | 0.0 | 0.0 | 0.00 | 0.39 | 0.39 | 93 | 1019.7 |
| 20260507034511 | 43 | 286 | 0.0 | 0.0 | 0.00 | 0.39 | 0.39 | 93 | 1019.8 |
| 20260507034009 | 44 | 302 | 0.0 | 0.0 | 0.00 | 0.39 | 0.39 | 92 | 1019.8 |
| 20260507033507 | 44 | 302 | 0.0 | 0.0 | 0.00 | 0.39 | 0.39 | 92 | 1019.6 |
| 20260507033004 | 44 | 302 | 0.0 | 0.0 | 0.00 | 0.39 | 0.39 | 92 | 1019.7 |
| 20260507032501 | 44 | 302 | 0.0 | 0.0 | 0.00 | 0.39 | 0.39 | 91 | 1019.6 |
| 20260507031957 | 44 | 302 | 0.0 | 0.0 | 0.00 | 0.39 | 0.39 | 91 | 1019.6 |
| 20260507031453 | 44 | 302 | 0.0 | 0.0 | 0.00 | 0.39 | 0.39 | 90 | 1019.9 |
| 20260507030950 | 44 | 302 | 0.0 | 0.0 | 0.00 | 0.39 | 0.39 | 90 | 1019.8 |
| 20260507030447 | 44 | 301 | 0.0 | 0.0 | 0.00 | 0.39 | 0.39 | 90 | 1019.8 |
| 20260507025944 | 44 | 300 | 0.0 | 0.0 | 0.00 | 0.39 | 0.39 | 90 | 1020.1 |
| 20260507025442 | 44 | 303 | 0.0 | 0.0 | 0.00 | 0.39 | 0.39 | 89 | 1019.7 |
| 20260507024939 | 44 | 303 | 0.0 | 0.0 | 0.00 | 0.39 | 0.39 | 88 | 1019.8 |
| 20260507024437 | 44 | 303 | 0.0 | 0.0 | 0.00 | 0.39 | 0.39 | 86 | 1019.9 |
| 20260507023932 | 45 | 303 | 0.0 | 0.0 | 0.00 | 0.39 | 0.39 | 85 | 1019.8 |
| 20260507023429 | 46 | 303 | 0.0 | 0.0 | 0.00 | 0.39 | 0.39 | 84 | 1019.9 |
| 20260507022926 | 46 | 303 | 0.0 | 0.0 | 0.00 | 0.39 | 0.39 | 83 | 1019.7 |
| 20260507022424 | 47 | 303 | 0.0 | 0.0 | 0.00 | 0.39 | 0.39 | 81 | 1019.8 |
| 20260507021919 | 47 | 303 | 0.0 | 0.0 | 0.00 | 0.39 | 0.39 | 80 | 1019.7 |
| 20260507021414 | 48 | 303 | 0.0 | 0.0 | 0.00 | 0.39 | 0.39 | 79 | 1019.7 |
| 20260507020913 | 49 | 303 | 0.0 | 0.0 | 0.00 | 0.39 | 0.39 | 78 | 1019.6 |
| 20260507020409 | 49 | 302 | 0.0 | 0.0 | 0.00 | 0.39 | 0.39 | 77 | 1019.7 |
| 20260507015906 | 48 | 310 | 0.0 | 0.0 | 0.00 | 0.39 | 0.39 | 78 | 1019.7 |
| 20260507015404 | 49 | 325 | 0.0 | 0.0 | 0.00 | 0.39 | 0.39 | 77 | 1019.5 |
| 20260507014901 | 49 | 325 | 0.0 | 0.0 | 0.00 | 0.39 | 0.39 | 77 | 1019.4 |
| 20260507014356 | 49 | 327 | 0.0 | 0.0 | 0.00 | 0.39 | 0.39 | 75 | 1019.2 |
| 20260507013853 | 49 | 352 | 0.0 | 0.0 | 0.00 | 0.39 | 0.39 | 74 | 1019.1 |
| 20260507013345 | 49 | 348 | 0.0 | 0.0 | 0.00 | 0.39 | 0.39 | 71 | 1019.0 |
| 20260507012842 | 50 | 336 | 0.0 | 0.0 | 0.00 | 0.39 | 0.39 | 70 | 1018.9 |
| 20260507012337 | 50 | 335 | 0.0 | 0.0 | 0.00 | 0.39 | 0.39 | 70 | 1019.1 |
| 20260507011834 | 51 | 335 | 0.0 | 0.0 | 0.00 | 0.39 | 0.39 | 69 | 1019.1 |
| 20260507011331 | 51 | 337 | 0.9 | 0.9 | 0.00 | 0.39 | 0.39 | 68 | 1019.1 |
| 20260507010826 | 51 | 343 | 0.0 | 0.0 | 0.00 | 0.39 | 0.39 | 67 | 1019.4 |
| 20260507010322 | 51 | 345 | 0.9 | 1.7 | 0.00 | 0.39 | 0.39 | 67 | 1019.1 |
| 20260507005819 | 51 | 341 | 0.0 | 0.0 | 0.00 | 0.39 | 0.39 | 67 | 1018.8 |
| 20260507005316 | 51 | 340 | 0.0 | 0.0 | 0.00 | 0.39 | 0.39 | 66 | 1019.4 |
| 20260507004807 | 52 | 320 | 1.7 | 1.7 | 0.00 | 0.39 | 0.39 | 65 | 1019.0 |
| 20260507004304 | 52 | 343 | 0.9 | 1.7 | 0.00 | 0.39 | 0.39 | 64 | 1019.3 |
| 20260507003801 | 52 | 352 | 0.9 | 0.9 | 0.00 | 0.39 | 0.39 | 62 | 1019.1 |
| 20260507003255 | 53 | 339 | 1.7 | 2.6 | 0.00 | 0.39 | 0.39 | 61 | 1018.9 |
| 20260507002752 | 53 | 354 | 0.9 | 0.9 | 0.00 | 0.39 | 0.39 | 61 | 1018.8 |
| 20260507002248 | 54 | 316 | 2.6 | 2.6 | 0.00 | 0.39 | 0.39 | 59 | 1018.8 |
| 20260507001745 | 54 | 5 | 0.9 | 0.9 | 0.00 | 0.39 | 0.39 | 60 | 1018.8 |
| 20260507001242 | 54 | 359 | 1.7 | 1.7 | 0.00 | 0.39 | 0.39 | 58 | 1018.6 |
| 20260507000738 | 54 | 356 | 3.5 | 4.3 | 0.00 | 0.39 | 0.39 | 59 | 1018.2 |
| 20260507000234 | 54 | 17 | 4.3 | 5.2 | 0.00 | 0.39 | 0.39 | 61 | 1018.3 |
| 20260506235731 | 55 | 340 | 0.9 | 0.9 | 0.00 | 0.39 | 0.39 | 60 | 1018.1 |
| 20260506235227 | 55 | 353 | 3.5 | 4.3 | 0.00 | 0.39 | 0.39 | 58 | 1018.2 |
| 20260506234724 | 55 | 12 | 0.9 | 1.7 | 0.00 | 0.39 | 0.39 | 61 | 1018.1 |
| 20260506234221 | 55 | 348 | 0.9 | 0.9 | 0.00 | 0.39 | 0.39 | 59 | 1017.9 |
| 20260506233719 | 54 | 14 | 3.5 | 4.3 | 0.00 | 0.39 | 0.39 | 59 | 1018.1 |
| 20260506233215 | 55 | 353 | 1.7 | 1.7 | 0.00 | 0.39 | 0.39 | 62 | 1017.9 |
| 20260506232712 | 55 | 340 | 3.5 | 5.2 | 0.00 | 0.39 | 0.39 | 59 | 1017.8 |
| 20260506232207 | 55 | 0 | 3.5 | 5.2 | 0.00 | 0.39 | 0.39 | 58 | 1017.7 |
| 20260506231704 | 55 | 338 | 2.6 | 2.6 | 0.00 | 0.39 | 0.39 | 60 | 1017.9 |
| 20260506231203 | 55 | 345 | 1.7 | 1.7 | 0.00 | 0.39 | 0.39 | 57 | 1018.0 |
| 20260506230659 | 55 | 38 | 1.7 | 1.7 | 0.00 | 0.39 | 0.39 | 58 | 1017.9 |
| 20260506230156 | 55 | 339 | 3.5 | 5.2 | 0.00 | 0.39 | 0.39 | 58 | 1017.9 |
| 20260506225652 | 56 | 322 | 2.6 | 5.2 | 0.00 | 0.39 | 0.39 | 56 | 1018.2 |
| 20260506225149 | 56 | 7 | 2.6 | 2.6 | 0.00 | 0.39 | 0.39 | 54 | 1018.2 |
| 20260506224646 | 56 | 352 | 4.3 | 6.1 | 0.00 | 0.39 | 0.39 | 55 | 1018.1 |
| 20260506224142 | 56 | 340 | 2.6 | 2.6 | 0.00 | 0.39 | 0.39 | 56 | 1018.3 |
| 20260506223639 | 57 | 348 | 3.5 | 5.2 | 0.00 | 0.39 | 0.39 | 55 | 1018.3 |
| 20260506223135 | 57 | 338 | 3.5 | 5.2 | 0.00 | 0.39 | 0.39 | 56 | 1018.3 |
| 20260506222632 | 57 | 321 | 5.2 | 6.1 | 0.00 | 0.39 | 0.39 | 56 | 1018.5 |
| 20260506222128 | 57 | 340 | 1.7 | 1.7 | 0.00 | 0.39 | 0.39 | 57 | 1018.8 |
| 20260506221626 | 57 | 351 | 4.3 | 6.1 | 0.00 | 0.39 | 0.39 | 56 | 1018.4 |
| 20260506221124 | 56 | 350 | 2.6 | 2.6 | 0.00 | 0.39 | 0.39 | 59 | 1018.1 |
| 20260506220620 | 56 | 329 | 5.2 | 7.0 | 0.00 | 0.39 | 0.39 | 57 | 1018.5 |
| 20260506220115 | 57 | 346 | 4.3 | 5.2 | 0.00 | 0.39 | 0.39 | 56 | 1018.8 |
| 20260506215612 | 57 | 342 | 5.2 | 7.0 | 0.00 | 0.39 | 0.39 | 57 | 1018.3 |
| 20260506215108 | 57 | 346 | 5.2 | 7.0 | 0.00 | 0.39 | 0.39 | 57 | 1018.4 |
| 20260506214605 | 57 | 353 | 3.5 | 4.3 | 0.00 | 0.39 | 0.39 | 59 | 1018.0 |
| 20260506214102 | 57 | 329 | 5.2 | 6.1 | 0.00 | 0.39 | 0.39 | 56 | 1018.3 |
| 20260506213600 | 57 | 1 | 2.6 | 2.6 | 0.00 | 0.39 | 0.39 | 56 | 1017.9 |
| 20260506213057 | 57 | 348 | 2.6 | 2.6 | 0.00 | 0.39 | 0.39 | 55 | 1018.1 |
| 20260506212554 | 58 | 333 | 4.3 | 6.1 | 0.00 | 0.39 | 0.39 | 56 | 1017.8 |
| 20260506212049 | 58 | 327 | 5.2 | 6.1 | 0.00 | 0.39 | 0.39 | 54 | 1017.8 |
| 20260506211545 | 58 | 326 | 2.6 | 2.6 | 0.00 | 0.39 | 0.39 | 54 | 1017.9 |
| 20260506211042 | 59 | 350 | 1.7 | 1.7 | 0.00 | 0.39 | 0.39 | 54 | 1017.8 |
| 20260506210539 | 58 | 306 | 2.6 | 5.2 | 0.00 | 0.39 | 0.39 | 58 | 1017.7 |
| 20260506210035 | 58 | 350 | 5.2 | 7.0 | 0.00 | 0.39 | 0.39 | 53 | 1017.6 |
| 20260506205532 | 58 | 0 | 0.9 | 1.7 | 0.00 | 0.39 | 0.39 | 57 | 1017.6 |
| 20260506205027 | 59 | 324 | 5.2 | 6.1 | 0.00 | 0.39 | 0.39 | 52 | 1017.6 |
| 20260506204526 | 59 | 11 | 0.9 | 1.7 | 0.00 | 0.39 | 0.39 | 51 | 1017.7 |
| 20260506204022 | 59 | 352 | 1.7 | 1.7 | 0.00 | 0.39 | 0.39 | 55 | 1017.8 |
| 20260506203521 | 59 | 327 | 2.6 | 6.1 | 0.00 | 0.39 | 0.39 | 52 | 1017.7 |
| 20260506203017 | 59 | 338 | 2.6 | 4.3 | 0.00 | 0.39 | 0.39 | 55 | 1017.6 |
| 20260506202514 | 59 | 349 | 2.6 | 2.6 | 0.00 | 0.39 | 0.39 | 54 | 1017.9 |
| 20260506202010 | 59 | 333 | 4.3 | 6.1 | 0.00 | 0.39 | 0.39 | 54 | 1017.8 |
| 20260506201509 | 59 | 304 | 2.6 | 2.6 | 0.00 | 0.39 | 0.39 | 56 | 1017.8 |
| 20260506201004 | 59 | 357 | 4.3 | 5.2 | 0.00 | 0.39 | 0.39 | 55 | 1017.8 |
| 20260506200501 | 60 | 324 | 3.5 | 4.3 | 0.00 | 0.39 | 0.39 | 52 | 1017.9 |
| 20260506195957 | 59 | 323 | 2.6 | 4.3 | 0.00 | 0.39 | 0.39 | 55 | 1017.7 |
| 20260506195454 | 59 | 23 | 1.7 | 4.3 | 0.00 | 0.39 | 0.39 | 55 | 1017.6 |
| 20260506194945 | 59 | 8 | 3.5 | 4.3 | 0.00 | 0.39 | 0.39 | 54 | 1017.6 |
| 20260506194443 | 59 | 316 | 2.6 | 2.6 | 0.00 | 0.39 | 0.39 | 53 | 1017.7 |
| 20260506193939 | 59 | 30 | 0.9 | 0.9 | 0.00 | 0.39 | 0.39 | 55 | 1017.6 |
| 20260506193436 | 60 | 330 | 2.6 | 4.3 | 0.00 | 0.39 | 0.39 | 52 | 1017.4 |
| 20260506192933 | 61 | 3 | 3.5 | 5.2 | 0.00 | 0.39 | 0.39 | 51 | 1017.4 |
| 20260506192430 | 62 | 312 | 3.5 | 4.3 | 0.00 | 0.39 | 0.39 | 54 | 1017.6 |
| 20260506191926 | 61 | 333 | 4.3 | 6.1 | 0.00 | 0.39 | 0.39 | 55 | 1017.3 |
| 20260506191423 | 61 | 326 | 3.5 | 6.1 | 0.00 | 0.39 | 0.39 | 55 | 1017.4 |
| 20260506190920 | 61 | 102 | 2.6 | 4.3 | 0.00 | 0.39 | 0.39 | 53 | 1017.5 |
| 20260506190416 | 60 | 278 | 1.7 | 4.3 | 0.00 | 0.39 | 0.39 | 56 | 1017.3 |
| 20260506185913 | 60 | 45 | 1.7 | 1.7 | 0.00 | 0.39 | 0.39 | 57 | 1017.5 |
| 20260506185411 | 61 | 347 | 6.1 | 8.7 | 0.00 | 0.39 | 0.39 | 52 | 1017.5 |
| 20260506184908 | 62 | 82 | 1.7 | 2.6 | 0.00 | 0.39 | 0.39 | 49 | 1017.4 |
| 20260506184404 | 60 | 341 | 2.6 | 2.6 | 0.00 | 0.39 | 0.39 | 58 | 1017.5 |
| 20260506183902 | 60 | 45 | 2.6 | 4.3 | 0.00 | 0.39 | 0.39 | 56 | 1017.5 |
| 20260506183357 | 59 | 1 | 6.1 | 7.0 | 0.00 | 0.39 | 0.39 | 53 | 1017.2 |
| 20260506182854 | 60 | 316 | 6.1 | 7.8 | 0.00 | 0.39 | 0.39 | 53 | 1017.7 |
| 20260506182351 | 60 | 329 | 6.1 | 7.8 | 0.00 | 0.39 | 0.39 | 58 | 1017.5 |
| 20260506181848 | 59 | 313 | 4.3 | 5.2 | 0.00 | 0.39 | 0.39 | 58 | 1017.4 |
| 20260506181347 | 59 | 15 | 0.9 | 0.9 | 0.00 | 0.39 | 0.39 | 60 | 1017.2 |
| 20260506180843 | 59 | 71 | 3.5 | 5.2 | 0.00 | 0.39 | 0.39 | 59 | 1017.6 |
| 20260506180339 | 59 | 31 | 3.5 | 4.3 | 0.00 | 0.39 | 0.39 | 53 | 1017.7 |
| 20260506175836 | 58 | 1 | 3.5 | 5.2 | 0.00 | 0.39 | 0.39 | 59 | 1017.9 |
| 20260506175333 | 58 | 357 | 2.6 | 4.3 | 0.00 | 0.39 | 0.39 | 56 | 1017.9 |
| 20260506174830 | 59 | 18 | 1.7 | 2.6 | 0.00 | 0.39 | 0.39 | 58 | 1017.7 |
| 20260506174327 | 58 | 326 | 6.1 | 6.1 | 0.00 | 0.39 | 0.39 | 56 | 1017.8 |
| 20260506173825 | 58 | 72 | 4.3 | 5.2 | 0.00 | 0.39 | 0.39 | 56 | 1017.9 |
| 20260506173321 | 58 | 12 | 0.9 | 1.7 | 0.00 | 0.39 | 0.39 | 60 | 1017.6 |
| 20260506172818 | 58 | 335 | 2.6 | 2.6 | 0.00 | 0.39 | 0.39 | 57 | 1017.7 |
| 20260506172314 | 58 | 347 | 2.6 | 4.3 | 0.00 | 0.39 | 0.39 | 59 | 1017.8 |
| 20260506171807 | 58 | 59 | 1.7 | 2.6 | 0.00 | 0.39 | 0.39 | 62 | 1017.9 |
| 20260506171304 | 59 | 104 | 2.6 | 2.6 | 0.00 | 0.39 | 0.39 | 63 | 1017.8 |
| 20260506170802 | 57 | 2 | 2.6 | 4.3 | 0.00 | 0.39 | 0.39 | 65 | 1017.8 |
| 20260506170257 | 57 | 18 | 4.3 | 5.2 | 0.00 | 0.39 | 0.39 | 62 | 1018.1 |
| 20260506165756 | 57 | 71 | 4.3 | 7.0 | 0.00 | 0.39 | 0.39 | 58 | 1018.3 |
| 20260506165253 | 57 | 357 | 2.6 | 4.3 | 0.00 | 0.39 | 0.39 | 64 | 1018.0 |
| 20260506164750 | 57 | 0 | 6.1 | 8.7 | 0.00 | 0.39 | 0.39 | 65 | 1017.8 |
| 20260506164247 | 57 | 4 | 6.1 | 7.8 | 0.00 | 0.39 | 0.39 | 59 | 1018.0 |
| 20260506163743 | 57 | 359 | 0.9 | 1.7 | 0.00 | 0.39 | 0.39 | 59 | 1017.7 |
| 20260506163238 | 57 | 37 | 2.6 | 2.6 | 0.00 | 0.39 | 0.39 | 66 | 1017.8 |
| 20260506162735 | 57 | 350 | 0.9 | 0.9 | 0.00 | 0.39 | 0.39 | 64 | 1017.7 |
| 20260506162233 | 56 | 12 | 2.6 | 4.3 | 0.00 | 0.39 | 0.39 | 67 | 1017.6 |
| 20260506161729 | 55 | 353 | 1.7 | 1.7 | 0.00 | 0.39 | 0.39 | 64 | 1017.7 |
| 20260506161226 | 55 | 335 | 4.3 | 7.0 | 0.00 | 0.39 | 0.39 | 65 | 1017.8 |
| 20260506160724 | 55 | 309 | 4.3 | 6.1 | 0.00 | 0.39 | 0.39 | 67 | 1017.9 |
| 20260506160220 | 55 | 9 | 2.6 | 2.6 | 0.00 | 0.39 | 0.39 | 68 | 1018.0 |
| 20260506155719 | 55 | 30 | 4.3 | 5.2 | 0.00 | 0.39 | 0.39 | 67 | 1018.0 |
| 20260506155215 | 55 | 351 | 4.3 | 7.0 | 0.00 | 0.39 | 0.39 | 68 | 1017.8 |
| 20260506153317 | 56 | 10 | 1.7 | 1.7 | 0.00 | 0.39 | 0.39 | 74 | 1017.4 |
| 20260506152814 | 55 | 348 | 2.6 | 4.3 | 0.00 | 0.39 | 0.39 | 72 | 1017.2 |
| 20260506152311 | 54 | 22 | 2.6 | 5.2 | 0.00 | 0.39 | 0.39 | 72 | 1017.5 |
| 20260506151810 | 54 | 354 | 0.9 | 1.7 | 0.00 | 0.39 | 0.39 | 70 | 1017.4 |
| 20260506151306 | 54 | 31 | 2.6 | 5.2 | 0.00 | 0.39 | 0.39 | 71 | 1017.3 |
| 20260506150803 | 54 | 4 | 0.9 | 0.9 | 0.00 | 0.39 | 0.39 | 73 | 1016.9 |
| 20260506150304 | 53 | 31 | 0.9 | 1.7 | 0.00 | 0.39 | 0.39 | 73 | 1016.8 |
| 20260506145757 | 54 | 18 | 2.6 | 4.3 | 0.00 | 0.39 | 0.39 | 74 | 1016.9 |
| 20260506145253 | 53 | 104 | 2.6 | 4.3 | 0.00 | 0.39 | 0.39 | 73 | 1017.1 |
| 20260506144751 | 53 | 318 | 4.3 | 6.1 | 0.00 | 0.39 | 0.39 | 73 | 1016.8 |
| 20260506144248 | 53 | 15 | 4.3 | 6.1 | 0.00 | 0.39 | 0.39 | 74 | 1016.8 |
| 20260506143745 | 53 | 74 | 1.7 | 4.3 | 0.00 | 0.39 | 0.39 | 74 | 1016.7 |
| 20260506143243 | 52 | 69 | 0.0 | 0.9 | 0.00 | 0.39 | 0.39 | 80 | 1016.7 |
| 20260506142741 | 52 | 39 | 3.5 | 4.3 | 0.00 | 0.39 | 0.39 | 77 | 1016.8 |
| 20260506142239 | 52 | 17 | 1.7 | 1.7 | 0.00 | 0.39 | 0.39 | 78 | 1016.7 |
| 20260506141736 | 51 | 4 | 1.7 | 2.6 | 0.00 | 0.39 | 0.39 | 80 | 1016.7 |
| 20260506141235 | 52 | 3 | 3.5 | 6.1 | 0.00 | 0.39 | 0.39 | 77 | 1016.8 |
| 20260506140732 | 52 | 7 | 1.7 | 2.6 | 0.00 | 0.39 | 0.39 | 76 | 1016.9 |
| 20260506140229 | 52 | 1 | 1.7 | 1.7 | 0.00 | 0.39 | 0.39 | 77 | 1016.5 |
| 20260506135725 | 53 | 243 | 0.9 | 1.7 | 0.00 | 0.39 | 0.39 | 77 | 1016.1 |
| 20260506135222 | 52 | 33 | 1.7 | 1.7 | 0.00 | 0.39 | 0.39 | 79 | 1016.5 |